sat.trackr.live / text

‹ back to catalog

STARLINK-34333

NORAD 64264 · 2025-120J

PAYLOAD ACTIVE UNKNOWN

§ Identity

Operator
Country
US
Launch date
2025-06-04
Launch site
AFWTR
Launch vehicle
Mass (kg)
RCS (m²)

Purposes: comms

External: N2YO · Heavens-Above · Gunter

§ Orbital elements

Epoch: 2026-05-25T04:40:18.533280Z

Period
93.78 min
Inclination
53.1604°
Eccentricity
0.0001345
Mean motion
15.35428820 rev/d
Perigee alt
458.7 km
Apogee alt
460.6 km
Semi-major
6,837.8 km
B*
9.8892e-4
RAAN
118.9067°
Arg perigee
85.2096°
Mean anomaly
274.9061°
Rev number
5,561

§ Raw data

STARLINK-343331 64264U 25120J   26145.19465895  .00034304  00000+0  98892-3 0  99992 64264  53.1604 118.9067 0001345  85.2096 274.9061 15.35428820 55612

JSON: /api/v1/satellites/64264 · /tle

For live sub-satellite position, see the globe view (requires WebGL).

§ Visibility from observer

Set your observer location to see the next 7 days of passes ≥ 10°. The values pass through the URL so the page stays shareable.

No JS? Fill the form by hand. The geolocation button needs JavaScript.